OneWeb SL0047

operational
NORAD ID: 45152 Int'l Des: 2020-008 Owner: ONEWEB Country: UK Constellation: oneweb
LEOCIRCULARPOLARONEWEB_TYPE

Über OneWeb SL0047

Beschreibung wird geladen...

Live-Position

3D-Globus wird geladen...

Nächste Überflüge

Höhenverlauf

Altitude vs Time

uPlot chart will show altitude changes over time

Zweizeiliger Elementsatz

1 45152U 20008X 25304.30569831 .00000644 00000-0 18087-2 0 9996
2 45152 87.8779 81.8956 0001463 99.0806 261.0487 13.10372433278224
Epoch: 31. Okt. 2025 • Age: 5 hours

Aktueller Status

Höhe 1236.2 km
Geschwindigkeit 7.24 km/s
Subsatellitenpunkt -36.74°S, 41.83°E
Startdatum 6. Feb. 2020
Alter 5.7 years
Typ internet

Technische Details

Klassifizierung Payload
Masse 148.00 kg
Trockenmasse 140.00 kg
Gesamtmasse 148.00 kg
Länge 1.30 m
Durchmesser 1.00 m
Spannweite 5.00 m
Form Trapezoid+2 pan
Hersteller ONEWUS
Bus-Typ ARROW
Phasenstatus In Orbit
Besitzer/Staat ONEWEB/UK

Große Konstellationen

Loading constellations...